Time,TemperatureF,DewpointF,PressureIn,WindDirection,WindDirectionDegrees,WindSpeedMPH,WindSpeedGustMPH,Humidity,HourlyPrecipIn,Conditions,Clouds,dailyrainin,SoftwareType,DateUTC
2013-08-29 00:01:00,67.3,67.0,30.14,East,85,0.0,0.0,97,0.00,,,0.00,weatherlink.com 1.10,2013-08-29 04:01:00,
2013-08-29 00:16:00,67.1,66.0,30.14,East,85,0.0,0.0,97,0.00,,,0.00,weatherlink.com 1.10,2013-08-29 04:16:00,
2013-08-29 00:31:00,66.7,66.0,30.14,East,85,0.0,0.0,97,0.00,,,0.00,weatherlink.com 1.10,2013-08-29 04:31:00,
2013-08-29 00:46:00,66.3,66.0,30.13,East,85,0.0,0.0,97,0.00,,,0.00,weatherlink.com 1.10,2013-08-29 04:46:00,
2013-08-29 01:01:00,65.9,65.0,30.13,East,84,0.0,0.0,97,0.00,,,0.00,weatherlink.com 1.10,2013-08-29 05:01:00,
2013-08-29 01:16:00,65.7,65.0,30.12,ESE,111,0.0,1.0,97,0.00,,,0.00,weatherlink.com 1.10,2013-08-29 05:16:00,
2013-08-29 01:31:00,65.4,65.0,30.13,ESE,111,0.0,0.0,97,0.00,,,0.00,weatherlink.com 1.10,2013-08-29 05:31:00,
2013-08-29 01:46:00,65.1,65.0,30.12,ESE,113,0.0,0.0,98,0.00,,,0.00,weatherlink.com 1.10,2013-08-29 05:46:00,
2013-08-29 02:01:00,65.0,65.0,30.12,ESE,111,0.0,0.0,98,0.00,,,0.00,weatherlink.com 1.10,2013-08-29 06:01:00,
2013-08-29 02:16:00,64.9,64.0,30.13,ESE,112,0.0,1.0,98,0.00,,,0.00,weatherlink.com 1.10,2013-08-29 06:16:00,
2013-08-29 02:31:00,64.8,64.0,30.13,ESE,111,0.0,0.0,98,0.00,,,0.00,weatherlink.com 1.10,2013-08-29 06:31:00,
2013-08-29 02:46:00,65.2,65.0,30.13,NNW,334,0.0,1.0,98,0.00,,,0.00,weatherlink.com 1.10,2013-08-29 06:46:00,
2013-08-29 03:01:00,65.1,65.0,30.12,West,270,0.0,2.0,98,0.00,,,0.00,weatherlink.com 1.10,2013-08-29 07:01:00,
2013-08-29 03:16:00,65.1,65.0,30.13,West,280,0.0,1.0,98,0.00,,,0.00,weatherlink.com 1.10,2013-08-29 07:16:00,
2013-08-29 03:31:00,65.0,65.0,30.13,NNE,26,0.0,1.0,98,0.00,,,0.00,weatherlink.com 1.10,2013-08-29 07:31:00,
2013-08-29 03:46:00,65.0,65.0,30.13,ENE,75,0.0,1.0,98,0.00,,,0.00,weatherlink.com 1.10,2013-08-29 07:46:00,
2013-08-29 04:01:00,65.0,65.0,30.13,West,271,1.0,1.0,98,0.00,,,0.00,weatherlink.com 1.10,2013-08-29 08:01:00,
2013-08-29 04:16:00,64.9,64.0,30.13,West,273,0.0,2.0,98,0.00,,,0.00,weatherlink.com 1.10,2013-08-29 08:16:00,
2013-08-29 04:31:00,64.6,64.0,30.12,West,279,1.0,1.0,98,0.00,,,0.00,weatherlink.com 1.10,2013-08-29 08:31:00,
2013-08-29 04:46:00,64.2,64.0,30.12,WSW,253,0.0,1.0,98,0.00,,,0.00,weatherlink.com 1.10,2013-08-29 08:46:00,
2013-08-29 05:01:00,63.9,63.0,30.12,WSW,257,0.0,1.0,98,0.00,,,0.00,weatherlink.com 1.10,2013-08-29 09:01:00,
2013-08-29 05:16:00,63.7,63.0,30.12,West,260,0.0,1.0,98,0.00,,,0.00,weatherlink.com 1.10,2013-08-29 09:16:00,
2013-08-29 05:31:00,63.7,63.0,30.12,West,260,0.0,1.0,98,0.00,,,0.00,weatherlink.com 1.10,2013-08-29 09:31:00,
2013-08-29 05:46:00,63.5,63.0,30.12,WNW,283,0.0,2.0,98,0.00,,,0.00,weatherlink.com 1.10,2013-08-29 09:46:00,
2013-08-29 06:01:00,63.4,63.0,30.12,WNW,283,0.0,1.0,98,0.00,,,0.00,weatherlink.com 1.10,2013-08-29 10:01:00,
2013-08-29 06:16:00,63.4,63.0,30.12,WSW,255,0.0,1.0,98,0.00,,,0.00,weatherlink.com 1.10,2013-08-29 10:16:00,
2013-08-29 06:31:00,63.3,63.0,30.12,ESE,115,0.0,1.0,98,0.00,,,0.00,weatherlink.com 1.10,2013-08-29 10:31:00,
2013-08-29 06:46:00,63.4,63.0,30.12,West,278,0.0,2.0,98,0.00,,,0.00,weatherlink.com 1.10,2013-08-29 10:46:00,
2013-08-29 07:01:00,63.5,63.0,30.13,West,280,0.0,1.0,98,0.00,,,0.00,weatherlink.com 1.10,2013-08-29 11:01:00,
2013-08-29 07:16:00,63.5,63.0,30.14,West,281,0.0,1.0,98,0.00,,,0.00,weatherlink.com 1.10,2013-08-29 11:16:00,
2013-08-29 07:31:00,63.6,63.0,30.14,SSE,147,0.0,1.0,98,0.00,,,0.00,weatherlink.com 1.10,2013-08-29 11:31:00,
2013-08-29 07:46:00,63.9,63.0,30.14,ESE,121,0.0,1.0,98,0.00,,,0.00,weatherlink.com 1.10,2013-08-29 11:46:00,
2013-08-29 08:01:00,64.5,64.0,30.14,ESE,121,0.0,0.0,98,0.00,,,0.00,weatherlink.com 1.10,2013-08-29 12:01:00,
2013-08-29 08:16:00,65.1,65.0,30.15,ESE,118,0.0,1.0,98,0.00,,,0.00,weatherlink.com 1.10,2013-08-29 12:16:00,
2013-08-29 08:31:00,66.2,65.0,30.15,ESE,106,0.0,1.0,97,0.00,,,0.00,weatherlink.com 1.10,2013-08-29 12:31:00,
2013-08-29 08:46:00,68.3,67.0,30.15,ESE,120,1.0,2.0,94,0.00,,,0.00,weatherlink.com 1.10,2013-08-29 12:46:00,
2013-08-29 09:01:00,69.6,67.0,30.15,ESE,112,0.0,1.0,92,0.00,,,0.00,weatherlink.com 1.10,2013-08-29 13:01:00,
2013-08-29 09:16:00,71.7,69.0,30.15,East,91,0.0,1.0,92,0.00,,,0.00,weatherlink.com 1.10,2013-08-29 13:16:00,
2013-08-29 09:32:00,73.7,69.0,30.16,ESE,121,0.0,1.0,85,0.00,,,0.00,weatherlink.com 1.10,2013-08-29 13:32:00,
2013-08-29 09:47:00,74.4,69.0,30.16,SE,124,0.0,1.0,83,0.00,,,0.00,weatherlink.com 1.10,2013-08-29 13:47:00,
2013-08-29 10:02:00,74.3,70.0,30.16,SE,124,0.0,1.0,85,0.00,,,0.00,weatherlink.com 1.10,2013-08-29 14:02:00,
2013-08-29 10:17:00,76.1,71.0,30.16,East,91,3.0,4.0,83,0.00,,,0.00,weatherlink.com 1.10,2013-08-29 14:17:00,
2013-08-29 10:32:00,76.1,71.0,30.16,ESE,108,0.0,1.0,83,0.00,,,0.00,weatherlink.com 1.10,2013-08-29 14:32:00,
2013-08-29 10:47:00,77.4,72.0,30.16,East,96,0.0,2.0,83,0.00,,,0.00,weatherlink.com 1.10,2013-08-29 14:47:00,
2013-08-29 11:02:00,77.2,72.0,30.16,SSE,166,0.0,2.0,85,0.00,,,0.00,weatherlink.com 1.10,2013-08-29 15:02:00,
2013-08-29 11:17:00,78.9,73.0,30.16,SSW,198,0.0,2.0,83,0.00,,,0.00,weatherlink.com 1.10,2013-08-29 15:17:00,
2013-08-29 11:47:00,81.2,73.0,30.16,WSW,252,0.0,3.0,77,0.00,,,0.00,weatherlink.com 1.10,2013-08-29 15:47:00,
2013-08-29 12:02:00,83.1,72.0,30.16,SW,232,0.0,3.0,70,0.00,,,0.00,weatherlink.com 1.10,2013-08-29 16:02:00,
2013-08-29 12:17:00,82.8,72.0,30.15,ESE,107,2.0,4.0,69,0.00,,,0.00,weatherlink.com 1.10,2013-08-29 16:17:00,
2013-08-29 12:32:00,82.6,72.0,30.15,ENE,75,2.0,3.0,70,0.00,,,0.00,weatherlink.com 1.10,2013-08-29 16:32:00,
2013-08-29 12:47:00,84.8,73.0,30.14,NE,41,1.0,5.0,68,0.00,,,0.00,weatherlink.com 1.10,2013-08-29 16:47:00,
2013-08-29 13:02:00,86.0,71.0,30.14,NW,305,1.0,2.0,62,0.00,,,0.00,weatherlink.com 1.10,2013-08-29 17:02:00,
2013-08-29 13:17:00,84.8,73.0,30.14,NE,54,3.0,4.0,67,0.00,,,0.00,weatherlink.com 1.10,2013-08-29 17:17:00,
2013-08-29 13:32:00,84.0,72.0,30.14,ESE,108,0.0,4.0,68,0.00,,,0.00,weatherlink.com 1.10,2013-08-29 17:32:00,
2013-08-29 13:47:00,85.2,72.0,30.13,SE,134,2.0,4.0,65,0.00,,,0.00,weatherlink.com 1.10,2013-08-29 17:47:00,
2013-08-29 14:02:00,85.8,72.0,30.13,ESE,117,4.0,6.0,63,0.00,,,0.00,weatherlink.com 1.10,2013-08-29 18:02:00,
2013-08-29 14:17:00,86.4,72.0,30.12,WSW,250,0.0,7.0,63,0.00,,,0.00,weatherlink.com 1.10,2013-08-29 18:17:00,
2013-08-29 14:32:00,87.8,70.0,30.12,NE,43,1.0,7.0,55,0.00,,,0.00,weatherlink.com 1.10,2013-08-29 18:32:00,
2013-08-29 14:47:00,87.6,73.0,30.12,SE,137,4.0,4.0,62,0.00,,,0.00,weatherlink.com 1.10,2013-08-29 18:47:00,
2013-08-29 15:02:00,86.9,72.0,30.11,NNE,31,1.0,3.0,62,0.00,,,0.00,weatherlink.com 1.10,2013-08-29 19:02:00,
2013-08-29 15:17:00,88.1,72.0,30.10,NE,53,1.0,4.0,59,0.00,,,0.00,weatherlink.com 1.10,2013-08-29 19:17:00,
2013-08-29 15:32:00,88.6,69.0,30.10,NE,43,2.0,4.0,53,0.00,,,0.00,weatherlink.com 1.10,2013-08-29 19:32:00,
2013-08-29 15:47:00,88.4,67.0,30.10,SE,145,1.0,7.0,49,0.00,,,0.00,weatherlink.com 1.10,2013-08-29 19:47:00,
2013-08-29 16:02:00,88.2,68.0,30.10,ENE,70,1.0,8.0,52,0.00,,,0.00,weatherlink.com 1.10,2013-08-29 20:02:00,
2013-08-29 16:17:00,88.7,69.0,30.10,SE,139,4.0,4.0,53,0.00,,,0.00,weatherlink.com 1.10,2013-08-29 20:17:00,
2013-08-29 16:32:00,88.2,70.0,30.10,SSE,150,3.0,6.0,55,0.00,,,0.00,weatherlink.com 1.10,2013-08-29 20:32:00,
2013-08-29 16:47:00,88.3,70.0,30.10,SSE,149,0.0,5.0,54,0.00,,,0.00,weatherlink.com 1.10,2013-08-29 20:47:00,
2013-08-29 17:02:00,88.6,68.0,30.09,SE,124,2.0,4.0,51,0.00,,,0.00,weatherlink.com 1.10,2013-08-29 21:02:00,
2013-08-29 17:18:00,88.4,67.0,30.10,NNW,333,3.0,4.0,49,0.00,,,0.00,weatherlink.com 1.10,2013-08-29 21:18:00,
2013-08-29 17:33:00,87.9,67.0,30.09,West,280,1.0,3.0,50,0.00,,,0.00,weatherlink.com 1.10,2013-08-29 21:33:00,
2013-08-29 17:48:00,87.0,67.0,30.09,SW,229,0.0,4.0,51,0.00,,,0.00,weatherlink.com 1.10,2013-08-29 21:48:00,
2013-08-29 18:03:00,87.4,68.0,30.09,SW,233,1.0,3.0,53,0.00,,,0.00,weatherlink.com 1.10,2013-08-29 22:03:00,
2013-08-29 18:18:00,86.5,69.0,30.09,ENE,68,0.0,1.0,56,0.00,,,0.00,weatherlink.com 1.10,2013-08-29 22:18:00,
2013-08-29 18:33:00,86.3,68.0,30.09,SW,232,0.0,2.0,55,0.00,,,0.00,weatherlink.com 1.10,2013-08-29 22:33:00,
2013-08-29 18:48:00,87.0,70.0,30.09,North,4,0.0,1.0,57,0.00,,,0.00,weatherlink.com 1.10,2013-08-29 22:48:00,
2013-08-29 19:03:00,83.9,70.0,30.09,NE,55,0.0,0.0,63,0.00,,,0.00,weatherlink.com 1.10,2013-08-29 23:03:00,
2013-08-29 19:18:00,82.0,71.0,30.09,NE,55,0.0,0.0,69,0.00,,,0.00,weatherlink.com 1.10,2013-08-29 23:18:00,
2013-08-29 19:33:00,79.6,71.0,30.10,NE,55,0.0,0.0,75,0.00,,,0.00,weatherlink.com 1.10,2013-08-29 23:33:00,
2013-08-29 19:48:00,77.7,71.0,30.11,NE,55,0.0,0.0,79,0.00,,,0.00,weatherlink.com 1.10,2013-08-29 23:48:00,
2013-08-29 20:03:00,76.2,71.0,30.11,NE,56,0.0,0.0,83,0.00,,,0.00,weatherlink.com 1.10,2013-08-30 00:03:00,
2013-08-29 20:18:00,75.2,71.0,30.12,NE,53,0.0,0.0,85,0.00,,,0.00,weatherlink.com 1.10,2013-08-30 00:18:00,
2013-08-29 20:33:00,74.1,70.0,30.13,NE,52,0.0,0.0,87,0.00,,,0.00,weatherlink.com 1.10,2013-08-30 00:33:00,
2013-08-29 20:48:00,73.0,70.0,30.14,NE,52,0.0,0.0,89,0.00,,,0.00,weatherlink.com 1.10,2013-08-30 00:48:00,
2013-08-29 21:03:00,72.3,69.0,30.14,West,281,0.0,1.0,89,0.00,,,0.00,weatherlink.com 1.10,2013-08-30 01:03:00,
2013-08-29 21:18:00,71.8,69.0,30.14,WSW,257,0.0,0.0,89,0.00,,,0.00,weatherlink.com 1.10,2013-08-30 01:18:00,
2013-08-29 21:33:00,70.9,68.0,30.15,WSW,246,0.0,0.0,91,0.00,,,0.00,weatherlink.com 1.10,2013-08-30 01:33:00,
2013-08-29 21:48:00,70.5,68.0,30.15,WSW,248,0.0,0.0,92,0.00,,,0.00,weatherlink.com 1.10,2013-08-30 01:48:00,
2013-08-29 22:03:00,70.1,68.0,30.15,WSW,251,0.0,0.0,93,0.00,,,0.00,weatherlink.com 1.10,2013-08-30 02:03:00,
2013-08-29 22:18:00,69.7,68.0,30.15,WSW,252,0.0,0.0,94,0.00,,,0.00,weatherlink.com 1.10,2013-08-30 02:18:00,
2013-08-29 22:33:00,69.3,68.0,30.14,WSW,252,0.0,0.0,94,0.00,,,0.00,weatherlink.com 1.10,2013-08-30 02:33:00,
2013-08-29 22:48:00,69.4,68.0,30.16,WSW,256,0.0,0.0,94,0.00,,,0.00,weatherlink.com 1.10,2013-08-30 02:48:00,
2013-08-29 23:03:00,69.0,68.0,30.16,WSW,256,0.0,1.0,95,0.00,,,0.00,weatherlink.com 1.10,2013-08-30 03:03:00,
2013-08-29 23:18:00,69.2,68.0,30.15,WSW,257,0.0,1.0,95,0.00,,,0.00,weatherlink.com 1.10,2013-08-30 03:18:00,
2013-08-29 23:33:00,69.2,68.0,30.16,WSW,256,0.0,0.0,95,0.00,,,0.00,weatherlink.com 1.10,2013-08-30 03:33:00,
2013-08-29 23:48:00,69.2,68.0,30.16,WNW,291,0.0,1.0,94,0.00,,,0.00,weatherlink.com 1.10,2013-08-30 03:48:00,